USCCUSPP

Guest
Details From USCC - BALANDINO
To USPP - BOLSHOYE SAVINO
Flight Number -
Tags decoded
Created
Modified
Stats Distance 254 nm / 471 km
Max Altitude 0 ft / 0 m
Waypoints 5
Social Downloads 1
Likes 0
Share VATSIM

Download

Looking for another format? Having issues loading an existing format? Contact us
Advertisement - Login to hide

Notes

Requested: USCC TAKRA R486 ALUMA B210 LAGUL USPP Unmatched points: R486 B210

Route

USCC TAKRA ALUMA LAGUL USPP

ID Type Via Altitude Latitude Longitude Leg Dist Tot Dist Heading (true) Name
O USCC APT - 0 ft / 0 m 55.30584˚ 61.50332˚ - 0 nm - BALANDINO
TAKRA FIX - 0 ft / 0 m 55.90694˚ 61.22361˚ 37 nm 37 nm 345° / 345° -
ALUMA FIX - 0 ft / 0 m 56.38694˚ 60.98194˚ 29 nm 67 nm 344° / 344° -
LAGUL FIX - 0 ft / 0 m 57.65194˚ 56.50833˚ 164 nm 232 nm 299° / 296° -
O USPP APT - 0 ft / 0 m 57.91452˚ 56.02121˚ 22 nm 254 nm 316° / 315° BOLSHOYE SAVINO

Altitude Profile

Advertisement - Login to hide

Weather


0- 5 10 15 20 25 30 35+ Temperature / ° C

Clouds and Precipitation
Forecast for 2018-05-20 12:00 UTC. Updated 4 hours ago

Ground ~20,000 ft ~40,000 ft Winds

USCC

Details ICAO USCC (CEK)
Name BALANDINO
Region Russia
Timezone Asia/Yekaterinburg (UTC+5.0)
Stats Elevation 769 ft / 234 m (AMSL)
Location 55.305843° 61.503320°
Runways 1
Magnetic Variation 13.827° E

METAR

USCC 201430Z 23010G15MPS 9999 SCT030CB 23/07 Q1010 R27/000060 TEMPO VRB23MPS 3100 -TSRA SQ RMK QFE737

Decode

TAF

TAF USCC 201400Z 2015/2115 25007MPS 9999 SCT020CB TEMPO 2015/2021 28012MPS 3100 -TSRA BKN011CB TEMPO 2021/2112 32010MPS

Decode

Departure Runways

ID Width Length Bearing (true) Bearing (mag) Surface Threshold Offset Overrun Length
09 197 ft / 60 m 10,443 ft / 3,183 m 103.59° 89.76° Concrete 0 ft / 0 m 230 ft / 70 m
27 197 ft / 60 m 10,443 ft / 3,183 m 283.63° 269.80° Concrete 0 ft / 0 m 230 ft / 70 m

USPP

Details ICAO USPP (PEE)
Name BOLSHOYE SAVINO
Region Russia
Timezone Asia/Yekaterinburg (UTC+5.0)
Stats Elevation 404 ft / 123 m (AMSL)
Location 57.914517° 56.021214°
Runways 1
Magnetic Variation 15.630° E

METAR

USPP 201430Z 30007MPS 2900 -SHRA BKN012CB 13/11 Q1009 R21/090060 TEMPO -TSRA BKN011CB RMK QFE746

Decode

TAF

TAF USPP 201358Z 2015/2115 30007G12MPS 9999 BKN011 TEMPO 2015/2018 3100 -SHRA BKN011CB BECMG 2018/2020 35006MPS

Decode

Destination Runways

ID Width Length Bearing (true) Bearing (mag) Surface Threshold Offset Overrun Length
03 161 ft / 49 m 10,493 ft / 3,198 m 45.91° 30.28° Concrete 0 ft / 0 m 165 ft / 50 m
21 161 ft / 49 m 10,493 ft / 3,198 m 225.95° 210.32° Concrete 0 ft / 0 m 155 ft / 47 m

Approach Navaids

Runway Type Ident Frequency Range Bearing (true) Bearing (mag) Slope Elevation
21 Localiser IPX 109.90 MHz 18 nm / 33 km 222.51° 206.88° - 404 ft / 123 m (AMSL)
21 Glidescope IPX 109.90 MHz 10 nm / 19 km 225.93° 210.30° 2.70° 150 ft / 46 m (AMSL)

Popular Alternatives